Location: Newark
(50.8086°N, 4.3114°E)
Time: 21:06:34
(UTC+00:00)

ISS - Visible Passes

Search period start: 22 November 2019 00:00
Search period end: 02 December 2019 00:00
Orbit: 412 x 421 km, 51.6° (Epoch: 23 November)

Date Brightness Start Highest point End Pass type
(mag) Time Alt. Az. Time Alt. Az. Time Alt. Az.
22 Nov -1.3 17:29:26 10° SSE 17:29:54 11° SE 17:29:54 11° SE visible
23 Nov -1.7 18:15:05 10° SW 18:16:34 21° SSW 18:16:34 21° SSW visible
24 Nov -2.2 17:27:07 10° SSW 17:29:49 23° SE 17:30:14 22° SE visible
24 Nov -0.4 19:02:52 10° WSW 19:03:08 12° WSW 19:03:08 12° WSW visible
25 Nov -1.6 16:39:29 10° S 16:41:34 16° SE 16:43:39 10° ESE visible
25 Nov -2.5 18:14:29 10° WSW 18:16:44 37° SW 18:16:44 37° SW visible
26 Nov -3.1 17:26:12 10° SW 17:29:24 43° SSE 17:30:16 34° ESE visible
26 Nov -0.5 19:02:41 10° W 19:03:10 13° W 19:03:10 13° W visible
27 Nov -2.5 16:38:03 10° SSW 16:41:03 30° SSE 16:43:45 12° E visible
27 Nov -2.7 18:14:12 10° WSW 18:16:38 45° WSW 18:16:38 45° WSW visible
28 Nov -3.8 17:25:44 10° WSW 17:29:05 74° SSE 17:30:05 42° E visible
28 Nov -0.4 19:02:31 10° W 19:02:59 13° W 19:02:59 13° W visible
29 Nov -3.4 16:37:20 10° WSW 16:40:37 56° SSE 16:43:30 13° E visible
29 Nov -2.6 18:13:59 10° W 18:16:24 43° WNW 18:16:24 43° WNW visible
30 Nov -3.8 17:25:27 10° W 17:28:49 81° N 17:29:48 43° ENE visible
30 Nov -0.4 19:02:16 10° WNW 19:02:41 13° WNW 19:02:41 13° WNW visible
01 Dec -3.8 16:36:56 10° WSW 16:40:18 88° SSE 16:43:12 13° ENE visible
01 Dec -2.6 18:13:45 10° W 18:16:05 41° WNW 18:16:05 41° WNW visible
